Time,TemperatureF,DewpointF,PressureIn,WindDirection,WindDirectionDegrees,WindSpeedMPH,WindSpeedGustMPH,Humidity,HourlyPrecipIn,Conditions,Clouds,dailyrainin,SoftwareType,DateUTC
2013-02-28 00:00:00,47.3,34.5,30.18,ENE,64,0.0,3.0,61,0.00,CLR,,0.00,WeatherDisplay:10.37,2013-02-27 23:00:00,
2013-02-28 00:15:00,47.3,34.5,30.18,ENE,64,1.0,3.0,61,0.00,CLR,,0.00,WeatherDisplay:10.37,2013-02-27 23:15:00,
2013-02-28 00:30:00,47.0,34.2,30.18,ENE,64,1.0,2.0,61,0.00,CLR,,0.00,WeatherDisplay:10.37,2013-02-27 23:30:00,
2013-02-28 00:45:00,47.0,34.2,30.18,ENE,64,1.0,2.0,61,0.00,CLR,,0.00,WeatherDisplay:10.37,2013-02-27 23:45:00,
2013-02-28 01:00:00,47.0,34.2,30.18,ENE,64,1.0,3.0,61,0.00,CLR,,0.00,WeatherDisplay:10.37,2013-02-28 00:00:00,
2013-02-28 01:15:00,46.9,34.1,30.18,ENE,64,2.0,3.0,61,0.00,CLR,,0.00,WeatherDisplay:10.37,2013-02-28 00:15:00,
2013-02-28 01:30:00,46.7,34.4,30.18,ENE,64,1.0,3.0,62,0.00,CLR,,0.00,WeatherDisplay:10.37,2013-02-28 00:30:00,
2013-02-28 01:45:00,46.7,34.4,30.18,ENE,64,1.0,3.0,62,0.00,CLR,,0.00,WeatherDisplay:10.37,2013-02-28 00:45:00,
2013-02-28 02:00:00,46.4,34.1,30.18,ENE,64,2.0,4.0,62,0.00,CLR,,0.00,WeatherDisplay:10.37,2013-02-28 01:00:00,
2013-02-28 02:15:00,46.1,34.2,30.18,ENE,64,0.0,4.0,63,0.00,CLR,,0.00,WeatherDisplay:10.37,2013-02-28 01:15:00,
2013-02-28 02:30:00,45.9,34.0,30.18,ENE,64,2.0,4.0,63,0.00,CLR,,0.00,WeatherDisplay:10.37,2013-02-28 01:30:00,
2013-02-28 02:45:00,45.9,34.0,30.17,ENE,64,2.0,4.0,63,0.00,CLR,,0.00,WeatherDisplay:10.37,2013-02-28 01:45:00,
2013-02-28 03:00:00,46.0,34.1,30.17,ENE,64,3.0,5.0,63,0.00,CLR,,0.00,WeatherDisplay:10.37,2013-02-28 02:00:00,
2013-02-28 03:15:00,45.9,34.4,30.17,ENE,64,1.0,5.0,64,0.00,CLR,,0.00,WeatherDisplay:10.37,2013-02-28 02:15:00,
2013-02-28 03:30:00,45.9,34.0,30.16,SE,124,1.0,6.0,63,0.00,CLR,,0.00,WeatherDisplay:10.37,2013-02-28 02:30:00,
2013-02-28 03:45:00,45.7,34.2,30.17,SE,132,1.0,5.0,64,0.00,CLR,,0.00,WeatherDisplay:10.37,2013-02-28 02:45:00,
2013-02-28 04:00:00,45.9,34.0,30.17,SE,131,2.0,5.0,63,0.00,CLR,,0.00,WeatherDisplay:10.37,2013-02-28 03:00:00,
2013-02-28 04:15:00,45.9,33.6,30.16,SE,131,3.0,5.0,62,0.00,CLR,,0.00,WeatherDisplay:10.37,2013-02-28 03:15:00,
2013-02-28 04:30:00,45.1,33.2,30.16,SE,135,3.0,6.0,63,0.00,CLR,,0.00,WeatherDisplay:10.37,2013-02-28 03:30:00,
2013-02-28 04:45:00,45.6,33.3,30.16,SE,135,3.0,5.0,62,0.00,CLR,,0.00,WeatherDisplay:10.37,2013-02-28 03:45:00,
2013-02-28 05:00:00,45.6,33.3,30.16,SE,135,3.0,6.0,62,0.00,CLR,,0.00,WeatherDisplay:10.37,2013-02-28 04:00:00,
2013-02-28 05:15:00,45.4,33.1,30.16,SE,134,5.0,7.0,62,0.00,CLR,,0.00,WeatherDisplay:10.37,2013-02-28 04:15:00,
2013-02-28 05:30:00,45.1,33.2,30.16,SE,131,3.0,7.0,63,0.00,CLR,,0.00,WeatherDisplay:10.37,2013-02-28 04:30:00,
2013-02-28 05:45:00,45.3,33.4,30.16,ESE,115,5.0,6.0,63,0.00,CLR,,0.00,WeatherDisplay:10.37,2013-02-28 04:45:00,
2013-02-28 06:00:00,45.4,33.5,30.16,ENE,64,5.0,6.0,63,0.00,CLR,,0.00,WeatherDisplay:10.37,2013-02-28 05:00:00,
2013-02-28 06:15:00,45.1,33.2,30.16,ENE,64,5.0,6.0,63,0.00,CLR,,0.00,WeatherDisplay:10.37,2013-02-28 05:15:00,
2013-02-28 06:30:00,45.0,33.2,30.16,ENE,64,2.0,6.0,63,0.00,CLR,,0.00,WeatherDisplay:10.37,2013-02-28 05:30:00,
2013-02-28 06:45:00,45.1,33.2,30.17,ENE,64,2.0,6.0,63,0.00,CLR,,0.00,WeatherDisplay:10.37,2013-02-28 05:45:00,
2013-02-28 07:00:00,45.1,33.2,30.17,ENE,64,3.0,6.0,63,0.00,CLR,,0.00,WeatherDisplay:10.37,2013-02-28 06:00:00,
2013-02-28 07:15:00,45.3,33.4,30.17,ENE,64,2.0,5.0,63,0.00,CLR,,0.00,WeatherDisplay:10.37,2013-02-28 06:15:00,
2013-02-28 07:30:00,45.6,33.3,30.18,ENE,64,2.0,5.0,62,0.00,CLR,,0.00,WeatherDisplay:10.37,2013-02-28 06:30:00,
2013-02-28 07:45:00,46.1,33.4,30.18,ENE,64,2.0,4.0,61,0.00,CLR,,0.00,WeatherDisplay:10.37,2013-02-28 06:45:00,
2013-02-28 08:00:00,46.4,33.7,30.19,ENE,64,2.0,4.0,61,0.00,CLR,,0.00,WeatherDisplay:10.37,2013-02-28 07:00:00,
2013-02-28 08:15:00,47.9,34.7,30.19,ENE,64,0.0,3.0,60,0.00,CLR,,0.00,WeatherDisplay:10.37,2013-02-28 07:15:00,
2013-02-28 08:30:00,49.0,34.9,30.20,ENE,63,0.0,2.0,58,0.00,CLR,,0.00,WeatherDisplay:10.37,2013-02-28 07:30:00,
2013-02-28 08:45:00,49.7,34.2,30.20,SSE,164,1.0,4.0,55,0.00,CLR,,0.00,WeatherDisplay:10.37,2013-02-28 07:45:00,
2013-02-28 09:00:00,50.1,34.1,30.20,SW,228,1.0,10.0,54,0.00,CLR,,0.00,WeatherDisplay:10.37,2013-02-28 08:00:00,
2013-02-28 09:15:00,50.6,34.6,30.20,South,186,1.0,8.0,54,0.00,CLR,,0.00,WeatherDisplay:10.37,2013-02-28 08:15:00,
2013-02-28 09:30:00,50.9,34.4,30.20,SW,225,1.0,7.0,53,0.00,CLR,,0.00,WeatherDisplay:10.37,2013-02-28 08:30:00,
2013-02-28 09:45:00,51.5,34.4,30.21,SW,235,1.0,5.0,52,0.00,CLR,,0.00,WeatherDisplay:10.37,2013-02-28 08:45:00,
2013-02-28 10:00:00,50.9,34.4,30.21,WSW,242,2.0,8.0,53,0.00,CLR,,0.00,WeatherDisplay:10.37,2013-02-28 09:00:00,
2013-02-28 10:15:00,51.3,35.7,30.21,WSW,243,2.0,9.0,55,0.00,CLR,,0.00,WeatherDisplay:10.37,2013-02-28 09:15:00,
2013-02-28 10:30:00,51.0,34.4,30.21,WSW,248,5.0,8.0,53,0.00,CLR,,0.00,WeatherDisplay:10.37,2013-02-28 09:30:00,
2013-02-28 10:45:00,51.1,35.1,30.22,WSW,254,6.0,9.0,54,0.00,CLR,,0.00,WeatherDisplay:10.37,2013-02-28 09:45:00,
2013-02-28 11:00:00,50.9,35.3,30.21,WSW,249,6.0,9.0,55,0.00,CLR,,0.00,WeatherDisplay:10.37,2013-02-28 10:00:00,
2013-02-28 11:15:00,51.6,35.5,30.21,WSW,253,6.0,9.0,54,0.00,CLR,,0.00,WeatherDisplay:10.37,2013-02-28 10:15:00,
2013-02-28 11:30:00,50.7,34.7,30.21,WSW,253,6.0,9.0,54,0.00,CLR,,0.00,WeatherDisplay:10.37,2013-02-28 10:30:00,
2013-02-28 11:45:00,51.3,36.1,30.21,WSW,253,5.0,12.0,56,0.00,CLR,,0.00,WeatherDisplay:10.37,2013-02-28 10:45:00,
2013-02-28 12:00:00,51.5,35.8,30.21,West,260,7.0,10.0,55,0.00,CLR,,0.00,WeatherDisplay:10.37,2013-02-28 11:00:00,
2013-02-28 12:15:00,51.6,35.5,30.20,WSW,257,6.0,10.0,54,0.00,CLR,,0.00,WeatherDisplay:10.37,2013-02-28 11:15:00,
2013-02-28 12:30:00,51.8,34.7,30.20,WSW,258,6.0,12.0,52,0.00,CLR,,0.00,WeatherDisplay:10.37,2013-02-28 11:30:00,
2013-02-28 12:45:00,51.9,32.8,30.19,WSW,250,7.0,13.0,48,0.00,CLR,,0.00,WeatherDisplay:10.37,2013-02-28 11:45:00,
2013-02-28 13:00:00,51.8,34.7,30.18,WSW,251,6.0,13.0,52,0.00,CLR,,0.00,WeatherDisplay:10.37,2013-02-28 12:00:00,
2013-02-28 13:15:00,52.4,35.3,30.18,West,266,6.0,12.0,52,0.00,CLR,,0.00,WeatherDisplay:10.37,2013-02-28 12:15:00,
2013-02-28 13:30:00,51.9,36.7,30.18,WSW,252,6.0,13.0,56,0.00,CLR,,0.00,WeatherDisplay:10.37,2013-02-28 12:30:00,
2013-02-28 13:45:00,51.4,37.1,30.17,West,262,8.0,12.0,58,0.00,CLR,,0.00,WeatherDisplay:10.37,2013-02-28 12:45:00,
2013-02-28 14:00:00,52.2,37.9,30.17,West,261,6.0,12.0,58,0.00,CLR,,0.00,WeatherDisplay:10.37,2013-02-28 13:00:00,
2013-02-28 14:15:00,52.6,38.7,30.16,West,267,3.0,12.0,59,0.00,CLR,,0.00,WeatherDisplay:10.37,2013-02-28 13:15:00,
2013-02-28 14:30:00,51.8,38.3,30.16,West,262,8.0,13.0,60,0.00,CLR,,0.00,WeatherDisplay:10.37,2013-02-28 13:30:00,
2013-02-28 14:45:00,51.8,39.2,30.16,West,269,9.0,13.0,62,0.00,CLR,,0.00,WeatherDisplay:10.37,2013-02-28 13:45:00,
2013-02-28 15:00:00,52.1,37.3,30.15,West,265,7.0,12.0,57,0.00,CLR,,0.00,WeatherDisplay:10.37,2013-02-28 14:00:00,
2013-02-28 15:15:00,52.1,38.2,30.15,West,265,7.0,13.0,59,0.00,CLR,,0.00,WeatherDisplay:10.37,2013-02-28 14:15:00,
2013-02-28 15:30:00,52.2,38.3,30.15,West,271,6.0,12.0,59,0.00,CLR,,0.00,WeatherDisplay:10.37,2013-02-28 14:30:00,
2013-02-28 15:45:00,52.4,36.7,30.15,West,264,7.0,12.0,55,0.00,CLR,,0.00,WeatherDisplay:10.37,2013-02-28 14:45:00,
2013-02-28 16:00:00,52.5,38.6,30.15,West,274,6.0,12.0,59,0.00,CLR,,0.00,WeatherDisplay:10.37,2013-02-28 15:00:00,
2013-02-28 16:15:00,52.1,38.6,30.15,WSW,254,6.0,12.0,60,0.00,CLR,,0.00,WeatherDisplay:10.37,2013-02-28 15:15:00,
2013-02-28 16:30:00,52.1,38.2,30.14,West,260,8.0,13.0,59,0.00,CLR,,0.00,WeatherDisplay:10.37,2013-02-28 15:30:00,
2013-02-28 16:45:00,51.8,39.6,30.14,West,265,7.0,12.0,63,0.00,CLR,,0.00,WeatherDisplay:10.37,2013-02-28 15:45:00,
2013-02-28 17:00:00,51.7,38.7,30.14,West,264,8.0,12.0,61,0.00,CLR,,0.00,WeatherDisplay:10.37,2013-02-28 16:00:00,
2013-02-28 17:15:00,51.5,38.9,30.14,West,265,2.0,9.0,62,0.00,CLR,,0.00,WeatherDisplay:10.37,2013-02-28 16:15:00,
2013-02-28 17:30:00,51.6,38.6,30.14,West,280,3.0,8.0,61,0.00,CLR,,0.00,WeatherDisplay:10.37,2013-02-28 16:30:00,
2013-02-28 17:45:00,50.9,38.7,30.14,WNW,284,6.0,9.0,63,0.00,CLR,,0.00,WeatherDisplay:10.37,2013-02-28 16:45:00,
2013-02-28 18:00:00,50.7,39.0,30.14,WNW,286,2.0,8.0,64,0.00,CLR,,0.00,WeatherDisplay:10.37,2013-02-28 17:00:00,
2013-02-28 18:15:00,50.4,39.5,30.14,WNW,284,3.0,6.0,66,0.00,CLR,,0.00,WeatherDisplay:10.37,2013-02-28 17:15:00,
2013-02-28 18:30:00,50.4,39.5,30.14,WNW,286,2.0,5.0,66,0.00,CLR,,0.00,WeatherDisplay:10.37,2013-02-28 17:30:00,
2013-02-28 18:45:00,50.3,39.8,30.14,WNW,287,3.0,5.0,67,0.00,CLR,,0.00,WeatherDisplay:10.37,2013-02-28 17:45:00,
2013-02-28 19:00:00,50.3,39.8,30.14,WNW,287,0.0,4.0,67,0.00,CLR,,0.00,WeatherDisplay:10.37,2013-02-28 18:00:00,
2013-02-28 19:15:00,50.3,39.8,30.14,WNW,287,0.0,4.0,67,0.00,CLR,,0.00,WeatherDisplay:10.37,2013-02-28 18:15:00,
2013-02-28 19:30:00,50.0,39.8,30.14,WNW,287,0.0,0.0,68,0.00,CLR,,0.00,WeatherDisplay:10.37,2013-02-28 18:30:00,
2013-02-28 19:45:00,49.7,39.9,30.14,WNW,287,0.0,0.0,69,0.00,CLR,,0.00,WeatherDisplay:10.37,2013-02-28 18:45:00,
2013-02-28 20:00:00,49.5,40.1,30.14,WNW,287,0.0,3.0,70,0.00,CLR,,0.00,WeatherDisplay:10.37,2013-02-28 19:00:00,
2013-02-28 20:15:00,49.4,39.7,30.14,NNE,17,3.0,4.0,69,0.00,CLR,,0.00,WeatherDisplay:10.37,2013-02-28 19:15:00,
2013-02-28 20:30:00,49.3,39.9,30.14,NE,41,3.0,6.0,70,0.00,CLR,,0.00,WeatherDisplay:10.37,2013-02-28 19:30:00,
2013-02-28 20:45:00,49.1,38.6,30.14,NE,45,5.0,8.0,67,0.00,CLR,,0.00,WeatherDisplay:10.37,2013-02-28 19:45:00,
2013-02-28 21:00:00,49.2,38.3,30.14,NE,46,5.0,8.0,66,0.00,CLR,,0.00,WeatherDisplay:10.37,2013-02-28 20:00:00,
2013-02-28 21:15:00,49.3,38.0,30.14,NE,45,0.0,6.0,65,0.00,CLR,,0.00,WeatherDisplay:10.37,2013-02-28 20:15:00,
2013-02-28 21:30:00,49.1,37.8,30.14,NE,45,0.0,2.0,65,0.00,CLR,,0.00,WeatherDisplay:10.37,2013-02-28 20:30:00,
2013-02-28 21:45:00,49.1,38.2,30.14,NE,45,0.0,3.0,66,0.00,CLR,,0.00,WeatherDisplay:10.37,2013-02-28 20:45:00,
2013-02-28 22:00:00,49.1,38.2,30.14,NE,45,0.0,3.0,66,0.00,CLR,,0.00,WeatherDisplay:10.37,2013-02-28 21:00:00,
2013-02-28 22:15:00,49.4,38.5,30.14,NE,55,2.0,4.0,66,0.00,CLR,,0.00,WeatherDisplay:10.37,2013-02-28 21:15:00,
2013-02-28 22:30:00,49.4,38.5,30.14,ENE,64,1.0,3.0,66,0.00,CLR,,0.00,WeatherDisplay:10.37,2013-02-28 21:30:00,
2013-02-28 22:45:00,49.3,38.8,30.14,ENE,64,1.0,2.0,67,0.00,CLR,,0.00,WeatherDisplay:10.37,2013-02-28 21:45:00,
2013-02-28 23:00:00,49.0,38.5,30.13,ENE,64,3.0,6.0,67,0.00,CLR,,0.00,WeatherDisplay:10.37,2013-02-28 22:00:00,
2013-02-28 23:15:00,48.8,38.4,30.12,ESE,102,2.0,7.0,67,0.00,CLR,,0.00,WeatherDisplay:10.37,2013-02-28 22:15:00,
2013-02-28 23:30:00,48.4,38.3,30.12,ENE,57,5.0,7.0,68,0.00,CLR,,0.00,WeatherDisplay:10.37,2013-02-28 22:30:00,
2013-02-28 23:45:00,47.8,37.7,30.12,NE,48,2.0,10.0,68,0.00,CLR,,0.00,WeatherDisplay:10.37,2013-02-28 22:45:00,